Previsão horária em Almisera

Hoje, 22 Janeiro, Sexta-feira

Tempo Temperatura Precipitação Vento Pressão Humidade
00:00 +10°C° 0 mm 4 m/s 728 mmHg 71%
01:00 +9°C° 0 mm 5 m/s 728 mmHg 72%
02:00 +9°C° 0 mm 5 m/s 727 mmHg 73%
03:00 +9°C° 0 mm 5 m/s 727 mmHg 74%
04:00 +9°C° 0 mm 5 m/s 726 mmHg 73%
05:00 +10°C° 0 mm 6 m/s 725 mmHg 72%
06:00 +10°C° 0 mm 6 m/s 725 mmHg 71%
07:00 +11°C° 0 mm 7 m/s 725 mmHg 69%
08:00 +12°C° 0 mm 8 m/s 724 mmHg 67%
09:00 +13°C° 0 mm 9 m/s 724 mmHg 65%
10:00 +13°C° 0 mm 12 m/s 724 mmHg 56%
11:00 +13°C° 0 mm 14 m/s 725 mmHg 48%
12:00 +13°C° 0 mm 17 m/s 725 mmHg 40%
13:00 +13°C° 0 mm 17 m/s 725 mmHg 45%
14:00 +11°C° 0 mm 17 m/s 725 mmHg 51%
15:00 +10°C° 0 mm 16 m/s 725 mmHg 56%
16:00 +9°C° 0 mm 15 m/s 725 mmHg 58%
17:00 +8°C° 0 mm 14 m/s 726 mmHg 60%
18:00 +8°C° 0 mm 13 m/s 726 mmHg 62%
19:00 +7°C° 0 mm 12 m/s 727 mmHg 63%
20:00 +7°C° 0 mm 10 m/s 727 mmHg 64%
21:00 +6°C° 0 mm 9 m/s 728 mmHg 65%
22:00 +6°C° 0 mm 8 m/s 728 mmHg 67%
23:00 +5°C° 0 mm 7 m/s 729 mmHg 70%

Amanhã, 23 Janeiro, Sábado

Tempo Temperatura Precipitação Vento Pressão Humidade
00:00 +5°C° 0 mm 6 m/s 729 mmHg 72%
01:00 +5°C° 0 mm 6 m/s 729 mmHg 72%
02:00 +5°C° 0 mm 7 m/s 729 mmHg 72%
03:00 +5°C° 0 mm 7 m/s 729 mmHg 71%
04:00 +5°C° 0 mm 7 m/s 729 mmHg 71%
05:00 +4°C° 0 mm 7 m/s 729 mmHg 70%
06:00 +4°C° 0 mm 8 m/s 729 mmHg 70%
07:00 +5°C° 0 mm 8 m/s 729 mmHg 67%
08:00 +6°C° 0 mm 8 m/s 729 mmHg 65%
09:00 +7°C° 0 mm 9 m/s 729 mmHg 63%
10:00 +8°C° 0 mm 9 m/s 729 mmHg 59%
11:00 +8°C° 0 mm 9 m/s 729 mmHg 56%
12:00 +10°C° 0 mm 9 m/s 729 mmHg 53%
13:00 +11°C° 0 mm 9 m/s 729 mmHg 54%
14:00 +11°C° 0 mm 9 m/s 728 mmHg 55%
15:00 +11°C° 0 mm 9 m/s 728 mmHg 55%
16:00 +10°C° 0 mm 7 m/s 727 mmHg 60%
17:00 +9°C° 0 mm 6 m/s 727 mmHg 64%
18:00 +8°C° 0 mm 5 m/s 726 mmHg 68%
19:00 +8°C° 0 mm 5 m/s 726 mmHg 68%
20:00 +8°C° 0 mm 5 m/s 725 mmHg 69%
21:00 +8°C° 0 mm 5 m/s 725 mmHg 69%
22:00 +8°C° 0 mm 5 m/s 724 mmHg 69%
23:00 +8°C° 0 mm 5 m/s 724 mmHg 70%

Depois de amanhã, 24 Janeiro, Domingo

Tempo Temperatura Precipitação Vento Pressão Humidade
00:00 +9°C° 0 mm 6 m/s 723 mmHg 70%
01:00 +9°C° 0 mm 7 m/s 723 mmHg 70%
02:00 +10°C° 0 mm 7 m/s 722 mmHg 70%
03:00 +11°C° 0 mm 8 m/s 722 mmHg 71%
04:00 +11°C° 0 mm 9 m/s 723 mmHg 67%
05:00 +10°C° 0 mm 9 m/s 723 mmHg 64%
06:00 +9°C° 0 mm 10 m/s 724 mmHg 61%
07:00 +9°C° 0 mm 10 m/s 725 mmHg 60%
08:00 +10°C° 0 mm 9 m/s 725 mmHg 60%
09:00 +10°C° 0 mm 8 m/s 726 mmHg 60%
10:00 +11°C° 0 mm 7 m/s 727 mmHg 55%
11:00 +13°C° 0 mm 6 m/s 727 mmHg 50%
12:00 +14°C° 0 mm 5 m/s 728 mmHg 46%
13:00 +14°C° 0 mm 6 m/s 728 mmHg 46%
14:00 +14°C° 0 mm 7 m/s 728 mmHg 47%
15:00 +13°C° 0 mm 8 m/s 728 mmHg 47%
16:00 +12°C° 0 mm 8 m/s 728 mmHg 52%
17:00 +11°C° 0 mm 7 m/s 728 mmHg 57%
18:00 +9°C° 0 mm 7 m/s 728 mmHg 62%
19:00 +9°C° 0 mm 6 m/s 729 mmHg 63%
20:00 +9°C° 0 mm 6 m/s 729 mmHg 63%
21:00 +9°C° 0 mm 6 m/s 730 mmHg 64%
22:00 +8°C° 0 mm 5 m/s 730 mmHg 65%
23:00 +8°C° 0 mm 5 m/s 730 mmHg 67%

25 Janeiro, Segunda-feira

Tempo Temperatura Precipitação Vento Pressão Humidade
00:00 +8°C° 0 mm 5 m/s 730 mmHg 68%
01:00 +8°C° 0 mm 5 m/s 730 mmHg 69%
02:00 +8°C° 0 mm 4 m/s 730 mmHg 70%
03:00 +8°C° 0 mm 4 m/s 730 mmHg 71%
04:00 +7°C° 0 mm 4 m/s 730 mmHg 73%
05:00 +7°C° 0 mm 4 m/s 731 mmHg 74%
06:00 +8°C° 0 mm 3 m/s 731 mmHg 75%
07:00 +8°C° 0 mm 4 m/s 731 mmHg 74%
08:00 +8°C° 0 mm 4 m/s 732 mmHg 72%
09:00 +10°C° 0 mm 4 m/s 733 mmHg 71%
10:00 +11°C° 0 mm 4 m/s 733 mmHg 65%
11:00 +12°C° 0 mm 4 m/s 733 mmHg 59%
12:00 +13°C° 0 mm 4 m/s 733 mmHg 53%
13:00 +13°C° 0 mm 4 m/s 733 mmHg 53%
14:00 +13°C° 0 mm 4 m/s 733 mmHg 53%
15:00 +14°C° 0 mm 3 m/s 732 mmHg 54%
16:00 +12°C° 0 mm 3 m/s 733 mmHg 60%
17:00 +11°C° 0 mm 3 m/s 733 mmHg 66%
18:00 +9°C° 0 mm 3 m/s 733 mmHg 72%
19:00 +9°C° 0 mm 3 m/s 734 mmHg 73%
20:00 +9°C° 0 mm 3 m/s 734 mmHg 75%
21:00 +8°C° 0 mm 3 m/s 734 mmHg 77%
22:00 +8°C° 0 mm 3 m/s 735 mmHg 77%
23:00 +8°C° 0 mm 3 m/s 735 mmHg 78%

26 Janeiro, Terça-feira

Tempo Temperatura Precipitação Vento Pressão Humidade
00:00 +8°C° 0 mm 3 m/s 735 mmHg 78%
01:00 +8°C° 0 mm 3 m/s 734 mmHg 80%
02:00 +8°C° 0 mm 3 m/s 734 mmHg 81%
03:00 +8°C° 0 mm 3 m/s 734 mmHg 82%
04:00 +8°C° 0 mm 3 m/s 734 mmHg 83%
05:00 +8°C° 0 mm 3 m/s 734 mmHg 84%
06:00 +8°C° 0 mm 3 m/s 734 mmHg 84%
07:00 +9°C° 0 mm 3 m/s 735 mmHg 81%
08:00 +11°C° 0 mm 3 m/s 735 mmHg 77%
09:00 +12°C° 0 mm 3 m/s 736 mmHg 74%
10:00 +13°C° 0 mm 3 m/s 736 mmHg 68%
11:00 +15°C° 0 mm 4 m/s 736 mmHg 63%
12:00 +18°C° 0 mm 4 m/s 736 mmHg 57%
13:00 +17°C° 0 mm 5 m/s 735 mmHg 57%
14:00 +17°C° 0 mm 5 m/s 735 mmHg 57%
15:00 +17°C° 0 mm 5 m/s 735 mmHg 57%
16:00 +16°C° 0 mm 5 m/s 735 mmHg 60%
17:00 +15°C° 0 mm 4 m/s 735 mmHg 64%
18:00 +14°C° 0 mm 4 m/s 735 mmHg 67%
19:00 +14°C° 0 mm 4 m/s 735 mmHg 70%
20:00 +13°C° 0 mm 4 m/s 736 mmHg 72%
21:00 +13°C° 0 mm 5 m/s 736 mmHg 74%
22:00 +13°C° 0 mm 5 m/s 736 mmHg 76%
23:00 +13°C° 0 mm 4 m/s 736 mmHg 78%

27 Janeiro, Quarta-feira

Tempo Temperatura Precipitação Vento Pressão Humidade
00:00 +13°C° 0 mm 4 m/s 736 mmHg 81%
01:00 +13°C° 0 mm 4 m/s 736 mmHg 81%
02:00 +13°C° 0 mm 4 m/s 736 mmHg 81%
03:00 +13°C° 0 mm 5 m/s 736 mmHg 82%
04:00 +12°C° 0 mm 4 m/s 736 mmHg 83%
05:00 +12°C° 0 mm 3 m/s 736 mmHg 84%
06:00 +12°C° 0 mm 3 m/s 736 mmHg 85%
07:00 +13°C° 0 mm 3 m/s 736 mmHg 82%
08:00 +14°C° 0 mm 3 m/s 736 mmHg 78%
09:00 +16°C° 0 mm 3 m/s 737 mmHg 75%
10:00 +17°C° 0 mm 3 m/s 737 mmHg 69%
11:00 +18°C° 0 mm 2 m/s 737 mmHg 63%
12:00 +20°C° 0 mm 2 m/s 737 mmHg 57%
13:00 +20°C° 0 mm 3 m/s 736 mmHg 57%
14:00 +20°C° 0 mm 3 m/s 736 mmHg 58%
15:00 +20°C° 0 mm 3 m/s 736 mmHg 58%
16:00 +18°C° 0 mm 3 m/s 736 mmHg 64%
17:00 +16°C° 0 mm 3 m/s 735 mmHg 70%
18:00 +15°C° 0 mm 2 m/s 735 mmHg 76%
19:00 +14°C° 0 mm 2 m/s 736 mmHg 76%
20:00 +14°C° 0 mm 2 m/s 736 mmHg 77%
21:00 +13°C° 0 mm 2 m/s 736 mmHg 77%
22:00 +13°C° 0 mm 2 m/s 736 mmHg 77%
23:00 +12°C° 0 mm 3 m/s 736 mmHg 77%
Mostrar mais

Necessitamos do seu Consentimento

A Meteoprog e os seus Fornecedores de Serviços podem armazenar e aceder a dados pessoais como cookies, identificadores do dispositivo ou outras tecnologias semelhantes existentes no seu dispositivo e processar estes dados para personalizar conteúdos e anúncios, assim como funcionalidades nas redes sociais e análise de tráfego.

  • Armazenar e/ou aceder a informações no seu dispositivo

    Os cookies, identificadores do dispositivo ou outras informações podem ser armazenados ou acedidos no seu dispositivo, para os fins acima indicados.

  • Anúncios e conteúdos personalizados, medição de anúncios e conteúdos, dados sobre o público-alvo e desenvolvimento de produtos

    Os anúncios e os conteúdos podem ser personalizados com base num perfil. Podem ser adicionados dados adicionais para uma maior personalização dos anúncios e dos conteúdos. A eficácia dos anúncios e dos conteúdos pode ser medida. Podem ser obtidas informações sobre o público que visualizou os anúncios e os conteúdos. Estes dados podem ser usados para desenvolver ou melhorar sistemas, softwares ou a experiência do utilizador.

Ao clicar em "Eu concordo”, permitirá o uso de cookies, identificadores do dispositivo e web beacons mencionados ou outras tecnologias semelhantes. As configurações do navegador do seu dispositivo podem ser alteradas.

Para certos fins, podem ser invocados interesses legítimos ao invés de consentimento. Pode ler mais informação sobre este assunto na nossa Política de Privacidade e Cookies.